Location: La Junie
(44.7428°N, 2.1773°E)
Time: 15:57:43
(UTC+00:00)

ISS - Pass Details

Date: 15 May 2026
Orbit: 413 x 422 km, 51.6° (Epoch: 10 June)

Event Time Altitude Azimuth Distance (km) Brightness Sun altitude
Rises 22:58:20 0° 301° (WNW) 2,354 0.7 -25.2°
Reaches altitude 10° 23:00:27 10° 305° (NW) 1,490 -0.4 -25.3°
Enters shadow 23:02:04 25° 314° (NW) 871 -1.7 -25.4°
